Location: Dodge City Community College Allied Health Building
(37.7772°N, 100.0364°W)
Time: 15:15:19
(UTC+00:00)

OAO 2 Rocket - Pass Details

Date: 08 December 2021
Orbit: 676 x 745 km, 35.0° (Epoch: 19 January)

Event Time Altitude Azimuth Distance (km) Brightness Sun altitude
Exits shadow 12:04:44 15° 226° (SW) 1,905 5.3 -18.9°
Maximum altitude 12:08:41 40° 162° (SSE) 1,046 4.4 -18.2°
Drops below altitude 10° 12:13:29 10° 93° (E) 2,181 7.1 -17.2°
Sets 12:15:59 0° 86° (E) 3,089 8.0 -16.8°
